Tracking 21970 objects as of 25-Nov-2020
HD Live streaming from Space Station
objects crossing your sky now

SCOUT B-1 DEB

Track SCOUT B-1 DEB now!
10-day predictions


NORAD ID: 8867
Int'l Code: 1976-047C
Perigee: 999.3 km
Apogee: 1,110.7 km
Inclination: 99.4 °
Period: 106.1 minutes
Semi major axis: 7426 km
RCS: 0.05 m2 (small)
Launch date: May 22, 1976
Source: United States (US)
Launch site: AIR FORCE WESTERN TEST RANGE (AFWTR)

Note: This is SATELLITE DEBRIS
aabbcc
Your satellite tracking list
Your tracking list is empty




NASA's NSSDC Master Catalog

Two Line Element Set (TLE):
1  8867U 76047C   20329.47708285  .00000033  00000-0  10319-3 0  9993
2  8867  99.3991 236.4601 0075013  58.2139 353.1961 13.56649277200726
Source of the keplerian elements: AFSPC